Home   Weather   Grover Beach   Past weeks
Flag for USA

Past Weather in Grover Beach, California, USA — Yesterday and Last 2 Weeks

Now
51 °F

Passing clouds.


Feels Like: 49 °F
Forecast: 62 / 53 °F
Wind: 6 mph from Northwest

Location: San Luis Obispo County-Mc Chesney Field

Current Time: May 22, 2019 at 1:57:11 am

Latest Report: May 22, 2019 at 1:33 am


Visibility: 10 mi

Pressure: 29.87 "Hg

Humidity: 86%

Dew Point: 47 °F

Location of Grover BeachLocation

Past Weather in Grover Beach — Graph

°F

Grover Beach Temperature Yesterday

Maximum temperature yesterday: 63 °F (at 10:56 am)
Minimum temperature yesterday: 51 °F (at 11:56 pm)
Average temperature yesterday: 56 °F

High & Low Weather Summary for the Past Weeks

 TemperatureHumidityPressure
High77 °F (May 11, 11:56 am)100% (May 20, 6:59 am)30.12 "Hg (May 20, 6:59 am)
Low45 °F (May 17, 3:56 am)40% (May 17, 11:56 am)29.76 "Hg (May 9, 6:56 pm)
Average57 °F78%29.94 "Hg
* Reported May 6 11:56 pm — May 21 11:56 pm, Grover Beach. Weather by CustomWeather, © 2019

Note: Actual official high and low records may vary slightly from our data, if they occured in-between our weather recording intervals... More about our weather records

Advertising

Grover Beach Weather History for the Previous 24 Hours

Scroll right to see more
 ConditionsComfort  
Time TempWeatherWind HumidityBarometerVisibility
11:56 pm
Tue, May 21
51 °FPassing clouds.8 mph86%29.89 "Hg10 mi
10:56 pm52 °FPassing clouds.14 mph89%29.90 "Hg10 mi
9:56 pm52 °FClear.17 mph83%29.89 "Hg10 mi
8:56 pm54 °FMostly cloudy.16 mph77%29.88 "Hg10 mi
7:56 pm54 °FPartly sunny.24 mph77%29.87 "Hg10 mi
6:56 pm56 °FPartly sunny.26 mph75%29.85 "Hg10 mi
5:56 pm59 °FScattered clouds.21 mph64%29.87 "Hg10 mi
4:56 pm60 °FScattered clouds.26 mph65%29.89 "Hg10 mi
3:56 pm62 °FPassing clouds.28 mph58%29.91 "Hg10 mi
2:56 pm62 °FBroken clouds.26 mph60%29.92 "Hg10 mi
1:56 pm63 °FBroken clouds.23 mph60%29.93 "Hg10 mi
12:56 pm63 °FBroken clouds.22 mph58%29.94 "Hg10 mi
11:56 am63 °FBroken clouds.23 mph58%29.95 "Hg10 mi
10:56 am63 °FScattered clouds.16 mph63%29.95 "Hg10 mi
9:56 am60 °FPartly sunny.15 mph72%29.97 "Hg10 mi
9:18 am58 °FMore clouds than sun.13 mph75%29.97 "Hg10 mi
8:56 am57 °FMostly cloudy.6 mph83%29.97 "Hg10 mi
7:56 am53 °FMostly cloudy.No wind93%29.96 "Hg10 mi
7:38 am53 °FLight rain. Fog.No wind89%29.98 "Hg3 mi
7:15 am53 °FCloudy.No wind89%29.97 "Hg10 mi
5:56 am53 °FOvercast.5 mph89%29.96 "Hg10 mi
4:56 am53 °FMostly cloudy.No wind86%29.98 "Hg10 mi
3:56 am53 °FMostly cloudy.No wind86%29.99 "Hg10 mi
3:22 am54 °FMostly cloudy.6 mph83%29.99 "Hg10 mi
2:56 am54 °FMostly cloudy.No wind83%29.99 "Hg10 mi
1:56 am53 °FPassing clouds.No wind86%30.00 "Hg10 mi
Weather by CustomWeather, © 2019

See weather overview